CZ-6A DEB, 61287

Orbit data source: Space-Track

CZ-6A DEB, 61287 is space debris in LEO originally from a launch on Tue, 06 Aug 2024 UTC launched from the Taiyaun Space Center, China (TSC). Debris objects in space refer to the collection of defunct objects orbiting the Earth. Examples of debris include non-operational satellites, rocket bodies, and fragments generated from explosions, collisions, or faulty payload assembly.

Loading next visibility...
Identifier
61287, 2024-140SY
Orbit
LEO
Country
Flag of CNCN / PRC
Related business
Manufacturer
SAST
Mission
Spacecraft
Bus & Motor
Unknown
Mass
Unknown
Launch date (UTC)
2024-08-06 (2 years ago)
Launch vehicle
Unknown
Launch site
Taiyaun Space Center, China (TSC)
Object type
Payload
Rocket body
Debris
Shape & HBR
Unknown shape, 0.1 m
Radar Cross Section
Medium (>0.1 m² and <1 m²)

Expand to show TLE details & history
Last TLE update: 14 hours ago

TLE from 14 hours ago
0 CZ-6A DEB
1 61287U 24140SY  26171.25134846  .00006029  00000-0  96290-3 0  9991
2 61287  89.0560 273.7184 0096175 218.9913 140.4345 14.68671227 96793
Epoch: 2026-06-20T06:01Z
TLE epoch observation values (Epoch: 2026-06-20T06:01:56.506Z)
Latitude
-0.00002°
Longitude
-85.23569°
Altitude
720.93 km
Speed
7.467 km/s
True Right ascension
18h 14m 52s
True Declination
0° 00' 00"
Sunlit
Object was in full shadow at epoch
Visualization orbit readout
Latitude
Unknown
Longitude
Unknown
Altitude
Unknown
Speed
Unknown
Apparent Right ascension
Unknown
Apparent Declination
Unknown
Sunlit
N/A
Visualization observer readout
Local Sidereal Time
07:22:41
Azimuth
Unknown
Elevation
Unknown
Doppler factor
Unknown
Orbital elements
Apogee altitude
729.905 km
Perigee altitude
594.484 km
Semi-major axis
7,040.331 km
Eccentricity
0.00962
Inclination
89.056°
RAAN
273.7184°
Arg. of periapsis
218.9913°
True anomaly
141.13002°
Mean anomaly
140.4345°
Eccentric anomaly
140.7829°
Mean motion
3.67412 °/min
Orbital period
97.98 mins
BSTAR
0.0009629
Loading maneuver chart data...
Computing Atmospheric mass density...
Loading historical data...
Loading historical data...
Loading historical data...
Loading historical data...
Loading historical data...
Loading historical data...
Loading historical data...

Documentation

Showing up to 5 results
|